Hurlburt Field, FL

1:50 AM CST on February 21, 2018 (GMT -0600)
Hurlburt

Weather History for KHRT - March, 2013

Change the Weather History Date:

Monday, March 18, 2013

  Actual Average Record
Temperature  
Mean Temperature 67 °F -  
Max Temperature 71 °F 67 °F 79 °F (2015)
Min Temperature 63 °F 49 °F 35 °F (2007)
Cooling Degree Days 2    
Growing Degree Days 17 (Base 50)    
Moisture  
Dew Point 68 °F    
Average Humidity 100    
Maximum Humidity 100    
Minimum Humidity 99    
Precipitation  
Precipitation 0.00 in - - ()
Sea Level Pressure  
Sea Level Pressure 29.89 in    
Wind  
Wind Speed 9 mph (SSE)    
Max Wind Speed 14 mph    
Max Gust Speed 20 mph    
Visibility 10 miles    
Events Rain    
Averages and records for this station are not official NWS values.
T = Trace of Precipitation, MM = Missing Value Source: NWS Daily Summary

Daily Weather History Graph

Daily Weather History Graph

Search for Another Location

Airport or City:

Trip Planner

Search our weather history database for the weather conditions in past years. The results will help you decide how hot, cold, wet, or windy it might be!

Date:

Astronomy

Mar. 18, 2013 Rise Set
Actual Time 6:52 AM CDT 6:57 PM CDT
Civil Twilight 6:28 AM CDT 7:21 PM CDT
Nautical Twilight 6:00 AM CDT 7:49 PM CDT
Astronomical Twilight 5:32 AM CDT 8:17 PM CDT
Moon 11:15 AM CDT (3/18) 12:33 AM CDT (3/18)
Length of Visible Light 12h 52m
Length of Day
12h 04m
Waxing Crescent, 41% of the Moon is Illuminated
Mar 18
Waxing Crescent
Mar 19
First Quarter
Mar 27
Full
Apr 2
Last Quarter
Apr 10
New

Hourly Weather History & Observations

Time (CDT) Temp. Dew Point Humidity Pressure Visibility Wind Dir Wind Speed Gust Speed Precip Events Conditions
12:58 AM 63.9 °F 63.9 °F 100% 29.93 in 10.0 mi SSE 9.2 mph - N/A   Clear
1:58 AM 64.2 °F 64.2 °F 100% 29.92 in 10.0 mi South 12.7 mph - N/A   Partly Cloudy
2:58 AM 64.2 °F 64.2 °F 100% 29.92 in 10.0 mi SSE 9.2 mph - N/A   Partly Cloudy
3:58 AM 64.2 °F 64.2 °F 100% 29.91 in 10.0 mi ESE 3.5 mph - N/A   Overcast
4:58 AM 64.2 °F 64.2 °F 100% 29.92 in 10.0 mi ESE 6.9 mph - N/A   Overcast
5:58 AM 64.0 °F 64.0 °F 100% 29.94 in 10.0 mi ESE 5.8 mph - N/A   Overcast
6:30 AM 64.4 °F 64.4 °F 100% 29.94 in 10.0 mi ESE 5.8 mph - N/A Rain Light Rain
6:55 AM 64.4 °F 64.4 °F 100% 29.94 in 10.0 mi ESE 5.8 mph - N/A   Overcast
6:58 AM 64.4 °F 64.4 °F 100% 29.95 in 10.0 mi ESE 4.6 mph - 0.00 in   Overcast
7:58 AM 65.5 °F 65.5 °F 100% 29.95 in 10.0 mi ESE 6.9 mph - N/A   Mostly Cloudy
8:00 AM 66.2 °F 66.2 °F 100% 29.94 in 10.0 mi ESE 8.1 mph - N/A   Light Drizzle
8:09 AM 66.2 °F 66.2 °F 100% 29.94 in 10.0 mi SE 9.2 mph - N/A   Scattered Clouds
8:58 AM 66.9 °F 66.9 °F 100% 29.95 in 10.0 mi SE 8.1 mph - 0.00 in   Partly Cloudy
9:58 AM 68.7 °F 68.7 °F 100% 29.96 in 10.0 mi SE 10.4 mph - N/A   Mostly Cloudy
10:58 AM 70.7 °F 70.7 °F 100% 29.95 in 10.0 mi SE 11.5 mph - N/A   Clear
11:33 AM 71.6 °F 71.6 °F 100% 29.93 in 10.0 mi SE 11.5 mph - N/A   Mostly Cloudy
11:48 AM 71.6 °F 71.6 °F 100% 29.94 in 10.0 mi SE 13.8 mph - N/A   Overcast
11:58 AM 70.7 °F 70.7 °F 100% 29.94 in 10.0 mi SE 11.5 mph - N/A   Overcast
12:58 PM 71.4 °F 71.1 °F 99% 29.93 in 10.0 mi SE 11.5 mph - N/A   Overcast
1:23 PM 71.6 °F 71.6 °F 100% 29.91 in 10.0 mi SE 11.5 mph - N/A   Overcast
1:58 PM 71.4 °F 71.4 °F 100% 29.90 in 9.0 mi SSE 12.7 mph - N/A   Overcast
2:08 PM 71.6 °F 71.6 °F 100% 29.88 in 10.0 mi SE 12.7 mph 19.6 mph N/A   Mostly Cloudy
2:58 PM 71.4 °F 71.1 °F 99% 29.87 in 10.0 mi SSE 11.5 mph - N/A   Overcast
3:08 PM 71.6 °F 71.6 °F 100% 29.86 in 10.0 mi SSE 10.4 mph 18.4 mph N/A   Overcast
3:18 PM 71.6 °F 71.6 °F 100% 29.85 in 10.0 mi SSE 11.5 mph - N/A   Overcast
3:23 PM 71.6 °F 71.6 °F 100% 29.85 in 10.0 mi SSE 11.5 mph - N/A   Overcast
3:28 PM 71.6 °F 71.6 °F 100% 29.85 in 10.0 mi SSE 11.5 mph - N/A   Overcast
3:43 PM 71.6 °F 71.6 °F 100% 29.85 in 10.0 mi SSE 12.7 mph - N/A   Mostly Cloudy
3:53 PM 69.8 °F 69.8 °F 100% 29.85 in 10.0 mi SSE 11.5 mph - N/A   Mostly Cloudy
3:58 PM 70.3 °F 70.3 °F 100% 29.85 in 10.0 mi SSE 11.5 mph - N/A   Mostly Cloudy
4:03 PM 69.8 °F 69.8 °F 100% 29.84 in 10.0 mi SSE 12.7 mph - N/A   Mostly Cloudy
4:08 PM 69.8 °F 69.8 °F 100% 29.84 in 10.0 mi SSE 12.7 mph - N/A   Mostly Cloudy
4:14 PM 69.8 °F 69.8 °F 100% 29.84 in 10.0 mi SSE 10.4 mph - N/A   Light Drizzle
4:19 PM 69.8 °F 69.8 °F 100% 29.84 in 10.0 mi SSE 9.2 mph - N/A   Light Drizzle
4:23 PM 69.8 °F 69.8 °F 100% 29.84 in 10.0 mi SSE 10.4 mph - N/A   Mostly Cloudy
4:58 PM 69.8 °F 69.8 °F 100% 29.84 in 10.0 mi SSE 13.8 mph - 0.00 in   Overcast
5:58 PM 69.3 °F 69.3 °F 100% 29.84 in 10.0 mi South 13.8 mph - N/A   Mostly Cloudy
6:33 PM 68.0 °F 68.0 °F 100% 29.82 in 9.0 mi South 13.8 mph - N/A   Mostly Cloudy
6:58 PM 68.5 °F 68.5 °F 100% 29.84 in 8.0 mi South 10.4 mph - N/A   Mostly Cloudy
7:55 PM 68.4 °F 68.4 °F 100% 29.86 in 7.0 mi South 5.8 mph - N/A   Overcast
8:45 PM 68.0 °F 68.0 °F 100% 29.86 in 8.0 mi SSE 5.8 mph - N/A   Light Drizzle
8:53 PM 68.0 °F 68.0 °F 100% 29.86 in 9.0 mi South 6.9 mph - N/A   Overcast
8:58 PM 68.5 °F 68.5 °F 100% 29.87 in 10.0 mi South 6.9 mph - 0.00 in   Overcast
9:18 PM 68.0 °F 68.0 °F 100% 29.87 in 10.0 mi WSW 4.6 mph - N/A   Overcast
9:43 PM 68.0 °F 68.0 °F 100% 29.87 in 10.0 mi SSW 4.6 mph - N/A   Overcast
9:54 PM 68.0 °F 68.0 °F 100% 29.87 in 10.0 mi SSE 1.2 mph - N/A Rain Light Rain
9:58 PM 68.7 °F 68.7 °F 100% 29.88 in 10.0 mi Variable 2.3 mph - 0.00 in Rain Light Rain
10:02 PM 68.0 °F 68.0 °F 100% 29.86 in 10.0 mi SSE 5.8 mph - N/A   Overcast
10:12 PM 68.0 °F 68.0 °F 100% 29.86 in 10.0 mi SSE 6.9 mph - N/A   Overcast
10:27 PM 68.0 °F 68.0 °F 100% 29.87 in 10.0 mi South 3.5 mph - N/A   Overcast
10:58 PM 68.0 °F 68.0 °F 100% 29.88 in 10.0 mi South 4.6 mph - 0.00 in   Overcast
11:58 PM 68.5 °F 68.5 °F 100% 29.89 in 10.0 mi Calm Calm - N/A   Overcast